Location: Newark
(15.4608°S, 41.1635°W)
Time: 00:46:22
(UTC+00:00)

Explorer 11/Cluster Stage 4 - Pass Details

Date: 11 August 2021
Orbit: 467 x 1256 km, 28.8° (Epoch: 24 September)

Event Time Altitude Azimuth Distance (km) Brightness Sun altitude
Rises 22:28:17 0° 236° (SW) 3,251 10.4 -27.2°
Reaches altitude 10° 22:31:37 10° 219° (SW) 2,157 9.2 -28.0°
Enters shadow 22:33:28 16° 201° (SSW) 1,689 8.4 -28.4°
